STARLINK-11511, 62468

Orbit data source: Space-Track

STARLINK-11511, 62468 is a payload satellite owned by SpaceX/Seattle (US) in LEO that was launched on Tue, 31 Dec 2024 UTC via an FALCON 9 launch vehicle from the Air Force Eastern Test Range (AFETR). Payloads include a variety of satellites, spacecraft, and rockets equipped with specific instruments for various scientific and technological missions. These include communications satellites like Starlink; space stations such as the ISS; scientific satellites like the Hubble; Earth observation satellites from companies like Planet Labs, Umbra, and HawkEye 360; GPS; miniature CubeSats for education and research; and military/defense satellites.

Loading next visibility...
STARLINK-11511 details
Identifier
62468, 2024-254G
Orbit
LEO
Last TLE update6 hours ago
Origin
Flag of USSpaceX/Seattle (US)
ManufacturerSpaceX/Seattle
MissionOperational spacecraft
Bus & MotorSTARLINK V2M, Unknown motor
Mass730 kg wet, ~700 kg dry
Launch date (UTC)
2024-12-31 (4 weeks ago)
Launch vehicle
FALCON 9
Launch site
Air Force Eastern Test Range (AFETR)
Object type
Payload
Rocket body
Debris
Shape & HBRUnknown
Radar Cross SectionLarge (>1 m²)

Expand to show TLE details & history

TLE from 6 hours ago
0 STARLINK-11511
1 62468U 24254G   25025.58334491 -.00018012  00000-0 -10085-3 0  9995
2 62468  42.9952 164.8666 0001900 266.4834 138.0071 15.77856139  5231
Epoch: 2025-01-25T14:00Z
Definitive object data (Epoch: 2025-01-25T14:00:01Z)
Latitude28.66485°
Longitude-134.60248°
Altitude337.809 km
Speed7.71 km/s
True Right ascension13h 22m 07s
True Declination28° 30' 41"
Sunlit
Object was in full shadow at TLE epoch
Visualization TLE readout
Latitude36.73278°
Longitude-119.08768°
Altitude339.44 km
Speed7.71 km/s
Apparent Right ascension12h 05m 11s
Apparent Declination0° 30' 55"
Sunlit
Object is in daylight
Visualization observer readout
Local Sidereal Time21:29:50
Azimuth308.167° NW
Elevation-37.097°
Doppler factor1
Orbital elements
Apogee altitude339.78 km
Perigee altitude337.228 km
Semi-major axis6,716.641 km
Eccentricity0.00019
Inclination42.9952°
RAAN164.8666°
Arg. of periapsis266.4834°
True anomaly138.02166°
Mean anomaly138.0071°
Eccentric anomaly138.01438°
Mean motion3.94289 °/min
BSTAR-0.00010085
Orbital period91.3 mins
Loading maneuver chart data...
Loading historical data...
Loading historical data...
Loading historical data...
Loading historical data...
Loading historical data...
Loading historical data...
Loading historical data...

STARLINK-11511 Visibility forecast

Observer location: undefined°, undefined

Span
Click to sort rows by Start time (UTC) header in descending order
Start Az.
Max El. time (UTC)
Max El. Az.
Max El.
End time (UTC)
End Az.
5 mins2025-01-26 12:49:47.122Z231.411° WSW2025-01-26 12:51:47.122Z190.461° SSW35.289°2025-01-26 12:54:47.122Z79.333° E
4 mins2025-01-26 17:37:47.122Z268.496° W2025-01-26 17:39:47.122Z184.684° SSW31.71°2025-01-26 17:41:47.122Z136.683° SSE
|